HAWK-2C

Last updated on Fri Dec 29 2023 00:03:29 GMT+0000 (Coordinated Universal Time)

1 47502U 21006CT 23361.72745072 .00007518 00000+0 33724-3 0 9998 2 47502 97.3596 51.2267 0009494 138.3145 221.8816 15.21446867161823
UTC large
Height (km)
Speed (km/s)
/
Latitude / Longitude
Inclination (degrees)
Orbital Period (minutes)
Azimuth
Elevation
Range (km)
Doppler Factor

Next 0 passes for location: London (51.5072 / 0.1276)

Sorry there are no passes over London.